Погода в Хатъяй

Таиланд     6°58′46″N   100°28′06″E
темп.,
°C
ветер,
м/с
пор.,
м/с
влажн.,
%
обл.,
%
осадки,
мм/ч
давл.,
гПа
погр.,
м
7 мая, пт
пт701:00+24ссв1193100 2.3 101018
04:00+23ююз1192100 0.0 100911
07:00+25зсз1190100 0.0 101163
10:00+30в3575100 0.1 1011966
13:00+29в4676100 0.3 1009963
16:00+28всв4882100 3.2 1007552
19:00+26всв3787100 4.7 1009206
22:00+25вюв1290100 2.1 101054
8 мая, сб
сб801:00+24юз1195100 4.3 100919
04:00+24ююв1295100 0.1 100725
07:00+25ююз119299 0.1 100939
10:00+30зсз017180 0.1 1010626
13:00+31ссв2265100 1.7 10081071
16:00+29ссв347484 0.4 1007483
19:00+26ссв1185100 0.5 100812
22:00+26зсз118699 0.0 101011
9 мая, вс
вс901:00+25сз119097 0.8 100911
04:00+25ссз009194 0.3 100811
07:00+25с019097 0.1 101053
10:00+29ссз117398 0.0 1011689
13:00+32ссв335889 0.0 10081544
16:00+31ссв436520 0.3 1006844
19:00+26св118212 0.6 100812
22:00+26ююз118572 0.0 101011
10 мая, пн
пн1001:00+25ююз1189100 0.0 100911
04:00+25ю1189100 0.0 100711
07:00+25ю1188100 0.0 100851
10:00+30сз016812 0.0 1009877
13:00+33с325669 0.0 10071817
16:00+30св44650 0.0 1006637
19:00+27всв11802 0.0 100712
22:00+25ю11855 0.0 101011
11 мая, вт
вт1101:00+25ююв118899 0.0 100811
04:00+24ююв119233 0.0 100713
07:00+25зюз118857 0.0 100856
10:00+30з11645 0.0 1010866
13:00+33сз22526 0.0 10071492
16:00+31св546419 0.0 1005499
19:00+27вюв228047 0.4 100722
22:00+25ююв118680 0.0 100911